Starlink 30589

operational
NORAD ID: 58103 Int'l Des: 2023-161 Owner: SPXS Country: US Constellation: starlink
LEOCIRCULAR

About Starlink 30589

Description loading...

Live Position

Loading 3D Globe...

Upcoming Passes

Altitude History

Altitude vs Time

uPlot chart will show altitude changes over time

Two-Line Element Set

1 58103U 23161G 25301.07511923 -.00004645 00000-0 -14490-3 0 9991
2 58103 53.1602 61.6056 0001379 96.6906 263.4252 15.30180566114113
Epoch: Oct 28, 2025 • Age: 37 hours

Current Status

Altitude 491.9 km
Velocity 7.62 km/s
Sub-Earth Point -46.15°S, 98.14°E
Launch Date Oct 21, 2023
Age 2 years
Type internet

Technical Details

Classification Payload
Mass 730.00 kg
Dry Mass 700.00 kg
Total Mass 730.00 kg
Length 0.30 m
Diameter 4.10 m
Span 29.00 m
Shape Box + pan
Manufacturer SPXS
Bus Type Starlink V2M
Phase Status In Orbit
Owner/State SPXS/US

Large Constellations

Loading constellations...